DLH307 USRK-UNNT

Flight info

Callsign DLH307
Flight time 1h 28m
Altitude 37000
Route MALUR2M MALUR G483 URAMI W143 SOREB R484 LADOV G832 LAMGA LAMGA1K
Aircraft B38M/M-SDE1FGHILORVWXY/HB1

Departure

Time 2026-04-26 17:24
Airport Kogalym International Airport (USRK)

Arrival

Time 2026-04-26 18:52
Airport Novosibirsk Tolmachevo Airport (UNNT)
Time Latitude Longitude Altitude Speed Heading
2026-04-26 17:16 62.19590 74.53074 231 ft 0 kts 279°
2026-04-26 17:20 62.19590 74.53075 231 ft 0 kts 279°
2026-04-26 17:20 62.19585 74.53120 231 ft 3 kts 295°
2026-04-26 17:20 62.19573 74.53153 231 ft 3 kts 322°
2026-04-26 17:21 62.19554 74.53172 231 ft 3 kts 348°
2026-04-26 17:21 62.19534 74.53173 231 ft 1 kts
2026-04-26 17:21 62.19539 74.53174 232 ft 0 kts
2026-04-26 17:21 62.19548 74.53177 232 ft 6 kts
2026-04-26 17:22 62.19628 74.53204 232 ft 17 kts
2026-04-26 17:22 62.19786 74.53213 232 ft 28 kts
2026-04-26 17:22 62.19985 74.53294 232 ft 21 kts 27°
2026-04-26 17:22 62.20014 74.53386 232 ft 3 kts 106°
2026-04-26 17:23 62.19993 74.53545 232 ft 20 kts 101°
2026-04-26 17:23 62.19962 74.53708 232 ft 4 kts 167°
2026-04-26 17:23 62.19950 74.53706 232 ft 0 kts 191°
2026-04-26 17:23 62.19935 74.53701 232 ft 15 kts 189°
2026-04-26 17:24 62.19463 74.53523 232 ft 126 kts 189°
2026-04-26 17:24 62.18375 74.53129 912 ft 165 kts 189°
2026-04-26 17:24 62.17165 74.52907 2238 ft 189 kts 179°
2026-04-26 17:24 62.15898 74.53944 3407 ft 204 kts 148°
2026-04-26 17:25 62.14995 74.56405 4563 ft 221 kts 114°
2026-04-26 17:25 62.14864 74.59720 5785 ft 229 kts 83°
2026-04-26 17:25 62.15007 74.61985 6698 ft 236 kts 82°
2026-04-26 17:25 62.15278 74.66748 8448 ft 246 kts 82°
2026-04-26 17:26 62.15414 74.69178 9304 ft 251 kts 82°
2026-04-26 17:26 62.15629 74.73021 10345 ft 269 kts 82°
2026-04-26 17:26 62.15933 74.78522 11635 ft 293 kts 83°
2026-04-26 17:26 62.16178 74.82977 12550 ft 311 kts 84°
2026-04-26 17:27 62.16437 74.87700 13410 ft 328 kts 85°
2026-04-26 17:27 62.16619 74.91037 13975 ft 339 kts 86°
2026-04-26 17:27 62.16895 74.96130 14970 ft 348 kts 88°
2026-04-26 17:27 62.17173 75.01324 15987 ft 355 kts 89°
2026-04-26 17:28 62.17456 75.06627 16967 ft 362 kts 90°
2026-04-26 17:28 62.17738 75.11960 17884 ft 368 kts 91°
2026-04-26 17:28 62.18027 75.17447 18792 ft 374 kts 92°
2026-04-26 17:28 62.18318 75.23016 19656 ft 379 kts 92°
2026-04-26 17:29 62.18607 75.28679 20492 ft 384 kts 94°
2026-04-26 17:29 62.18636 75.32522 20969 ft 382 kts 101°
2026-04-26 17:29 62.18526 75.40119 22054 ft 388 kts 102°
2026-04-26 17:29 62.18462 75.45948 22827 ft 394 kts 102°
2026-04-26 17:30 62.18408 75.51851 23562 ft 399 kts 101°
2026-04-26 17:30 62.18359 75.57828 24283 ft 404 kts 102°
2026-04-26 17:30 62.18309 75.63896 24955 ft 409 kts 102°
2026-04-26 17:30 62.18257 75.70029 25617 ft 414 kts 102°
2026-04-26 17:31 62.18203 75.76231 26253 ft 419 kts 103°
2026-04-26 17:31 62.18145 75.82416 26878 ft 423 kts 103°
2026-04-26 17:31 62.18084 75.88826 27497 ft 427 kts 103°
2026-04-26 17:31 62.18019 75.95128 28086 ft 431 kts 104°
2026-04-26 17:32 62.17952 76.01569 28653 ft 435 kts 104°
2026-04-26 17:32 62.17879 76.08081 29214 ft 439 kts 104°
2026-04-26 17:32 62.17804 76.14634 29775 ft 443 kts 104°
2026-04-26 17:32 62.17725 76.21243 30313 ft 446 kts 104°
2026-04-26 17:33 62.17643 76.27912 30848 ft 449 kts 104°
2026-04-26 17:33 62.17557 76.34624 31347 ft 452 kts 103°
2026-04-26 17:33 62.17466 76.41371 31839 ft 456 kts 103°
2026-04-26 17:34 62.17272 76.55015 32822 ft 462 kts 102°
2026-04-26 17:34 62.17170 76.61904 33277 ft 465 kts 102°
2026-04-26 17:34 62.17063 76.68850 33715 ft 469 kts 102°
2026-04-26 17:34 62.16951 76.75852 34138 ft 472 kts 102°
2026-04-26 17:35 62.16836 76.82906 34540 ft 476 kts 101°
2026-04-26 17:35 62.16715 76.90022 34905 ft 481 kts 101°
2026-04-26 17:35 62.16591 76.97209 35277 ft 485 kts 100°
2026-04-26 17:35 62.16466 77.04346 35721 ft 486 kts 100°
2026-04-26 17:36 62.16217 77.11616 36162 ft 479 kts 107°
2026-04-26 17:36 62.15244 77.18191 36581 ft 463 kts 123°
2026-04-26 17:36 62.13536 77.23889 36864 ft 451 kts 137°
2026-04-26 17:36 62.11270 77.28357 36875 ft 437 kts 151°
2026-04-26 17:37 62.08650 77.31464 36875 ft 427 kts 162°
2026-04-26 17:37 62.03095 77.35736 36871 ft 422 kts 167°
2026-04-26 17:38 61.94614 77.39170 36880 ft 410 kts 186°
2026-04-26 17:38 61.88907 77.39292 36878 ft 413 kts 179°
2026-04-26 17:39 61.83190 77.40587 36878 ft 413 kts 178°
2026-04-26 17:39 61.77464 77.41910 36883 ft 413 kts 178°
2026-04-26 17:40 61.72708 77.43011 36886 ft 414 kts 178°
2026-04-26 17:40 61.66024 77.44551 36889 ft 414 kts 178°
2026-04-26 17:41 61.60300 77.45872 36884 ft 413 kts 178°
2026-04-26 17:41 61.54614 77.47177 36887 ft 414 kts 178°
2026-04-26 17:42 61.48895 77.48488 36890 ft 414 kts 178°
2026-04-26 17:42 61.43176 77.49792 36893 ft 414 kts 178°
2026-04-26 17:43 61.37451 77.51092 36893 ft 413 kts 178°
2026-04-26 17:43 61.31736 77.52385 36898 ft 413 kts 178°
2026-04-26 17:44 61.26022 77.53673 36896 ft 413 kts 178°
2026-04-26 17:44 61.20307 77.54958 36902 ft 413 kts 179°
2026-04-26 17:45 61.14594 77.56238 36900 ft 413 kts 179°
2026-04-26 17:45 61.08886 77.57511 36902 ft 413 kts 179°
2026-04-26 17:46 61.03175 77.58780 36905 ft 413 kts 179°
2026-04-26 17:46 60.97463 77.60046 36906 ft 413 kts 179°
2026-04-26 17:47 60.92715 77.61097 36908 ft 412 kts 179°
2026-04-26 17:47 60.86079 77.62574 36916 ft 413 kts 179°
2026-04-26 17:48 60.80366 77.63837 36906 ft 413 kts 179°
2026-04-26 17:48 60.74657 77.65095 36911 ft 412 kts 179°
2026-04-26 17:49 60.71828 77.66274 36910 ft 421 kts 167°
2026-04-26 17:49 60.69163 77.68939 36922 ft 430 kts 156°
2026-04-26 17:49 60.64071 77.75451 36914 ft 434 kts 154°
2026-04-26 17:50 60.59015 77.82179 36915 ft 434 kts 154°
2026-04-26 17:50 60.53993 77.88913 36916 ft 435 kts 154°
2026-04-26 17:51 60.48947 77.95669 36921 ft 434 kts 154°
2026-04-26 17:51 60.43900 78.02397 36917 ft 434 kts 154°
2026-04-26 17:52 60.38848 78.09106 36921 ft 434 kts 154°
2026-04-26 17:52 60.33823 78.15753 36923 ft 434 kts 154°
2026-04-26 17:53 60.28772 78.22405 36928 ft 433 kts 154°
2026-04-26 17:54 60.21191 78.32344 36928 ft 433 kts 154°
2026-04-26 17:54 60.16133 78.38944 36929 ft 433 kts 154°
2026-04-26 17:55 60.11060 78.45539 36927 ft 434 kts 154°
2026-04-26 17:55 60.05985 78.52114 36911 ft 434 kts 154°
2026-04-26 17:56 60.00902 78.58669 36912 ft 434 kts 154°
2026-04-26 17:57 59.90784 78.71654 36914 ft 434 kts 155°
2026-04-26 17:57 59.85701 78.78140 36916 ft 434 kts 155°
2026-04-26 17:58 59.75531 78.91047 36917 ft 434 kts 155°
2026-04-26 17:59 59.67879 79.00695 36918 ft 434 kts 155°
2026-04-26 17:59 59.62778 79.07099 36919 ft 434 kts 155°
2026-04-26 18:00 59.57670 79.13486 36921 ft 434 kts 155°
2026-04-26 18:00 59.52561 79.19853 36924 ft 434 kts 155°
2026-04-26 18:01 59.47449 79.26200 36924 ft 434 kts 155°
2026-04-26 18:01 59.42336 79.32524 36923 ft 434 kts 155°
2026-04-26 18:02 59.38952 79.36699 36927 ft 434 kts 155°
2026-04-26 18:02 59.32135 79.45076 36930 ft 434 kts 155°
2026-04-26 18:03 59.27013 79.51344 36931 ft 434 kts 155°
2026-04-26 18:03 59.21887 79.57596 36931 ft 434 kts 155°
2026-04-26 18:04 59.16761 79.63825 36934 ft 434 kts 155°
2026-04-26 18:05 59.09062 79.73134 36936 ft 434 kts 155°
2026-04-26 18:05 59.03925 79.79324 36933 ft 434 kts 155°
2026-04-26 18:06 58.98781 79.85495 36940 ft 435 kts 155°
2026-04-26 18:06 58.93627 79.91659 36935 ft 435 kts 155°
2026-04-26 18:07 58.88506 79.97764 36898 ft 435 kts 155°
2026-04-26 18:07 58.83348 80.03895 36901 ft 436 kts 155°
2026-04-26 18:08 58.78027 80.09407 36903 ft 432 kts 162°
2026-04-26 18:08 58.72540 80.14119 36903 ft 430 kts 162°
2026-04-26 18:09 58.67059 80.18769 36905 ft 430 kts 162°
2026-04-26 18:09 58.61575 80.23402 36906 ft 431 kts 162°
2026-04-26 18:10 58.56088 80.28022 36908 ft 431 kts 162°
2026-04-26 18:10 58.50631 80.32600 36909 ft 431 kts 162°
2026-04-26 18:11 58.45136 80.37195 36910 ft 430 kts 162°
2026-04-26 18:11 58.39646 80.41770 36912 ft 430 kts 162°
2026-04-26 18:12 58.34151 80.46333 36913 ft 430 kts 162°
2026-04-26 18:12 58.28685 80.50857 36915 ft 430 kts 162°
2026-04-26 18:13 58.23192 80.55387 36915 ft 431 kts 162°
2026-04-26 18:13 58.17689 80.59911 36917 ft 431 kts 162°
2026-04-26 18:14 58.12183 80.64422 36918 ft 431 kts 162°
2026-04-26 18:14 58.11800 80.64736 36918 ft 431 kts 162°
2026-04-26 18:15 58.11329 80.65121 36918 ft 431 kts 162°
2026-04-26 18:15 58.05837 80.69604 36918 ft 430 kts 162°
2026-04-26 18:16 58.02000 80.72726 36922 ft 430 kts 162°
2026-04-26 18:17 57.98381 80.75664 36924 ft 430 kts 162°
2026-04-26 18:17 57.92886 80.80112 36925 ft 430 kts 162°
2026-04-26 18:18 57.87394 80.84545 36922 ft 429 kts 162°
2026-04-26 18:18 57.81938 80.88933 36923 ft 429 kts 162°
2026-04-26 18:19 57.76449 80.93332 36928 ft 429 kts 162°
2026-04-26 18:19 57.70953 80.97723 36925 ft 429 kts 162°
2026-04-26 18:20 57.65450 81.02105 36924 ft 429 kts 162°
2026-04-26 18:20 57.60880 81.05735 36924 ft 429 kts 162°
2026-04-26 18:21 57.54451 81.10821 36927 ft 429 kts 162°
2026-04-26 18:21 57.48949 81.15158 36929 ft 430 kts 162°
2026-04-26 18:22 57.43445 81.19486 36927 ft 429 kts 162°
2026-04-26 18:22 57.37942 81.23797 36932 ft 429 kts 162°
2026-04-26 18:23 57.32480 81.28059 36929 ft 429 kts 162°
2026-04-26 18:23 57.26980 81.32340 36932 ft 429 kts 162°
2026-04-26 18:24 57.21471 81.36616 36929 ft 430 kts 162°
2026-04-26 18:24 57.15951 81.40888 36932 ft 430 kts 162°
2026-04-26 18:25 57.10431 81.45145 36937 ft 430 kts 162°
2026-04-26 18:25 57.04909 81.49386 36937 ft 430 kts 162°
2026-04-26 18:26 56.99377 81.53631 36938 ft 430 kts 162°
2026-04-26 18:26 56.93879 81.57836 36938 ft 431 kts 162°
2026-04-26 18:27 56.88335 81.62061 36940 ft 432 kts 162°
2026-04-26 18:27 56.82788 81.66276 36941 ft 432 kts 162°
2026-04-26 18:28 56.77225 81.70490 36941 ft 432 kts 162°
2026-04-26 18:28 56.71666 81.74687 36942 ft 433 kts 162°
2026-04-26 18:29 56.66091 81.78882 36942 ft 434 kts 162°
2026-04-26 18:29 56.60507 81.83071 36944 ft 434 kts 162°
2026-04-26 18:30 56.54913 81.87253 36944 ft 435 kts 163°
2026-04-26 18:30 56.49347 81.91403 36945 ft 435 kts 163°
2026-04-26 18:31 56.43740 81.95568 36946 ft 436 kts 163°
2026-04-26 18:31 56.38130 81.99723 36426 ft 433 kts 163°
2026-04-26 18:32 56.35352 82.01775 35662 ft 430 kts 163°
2026-04-26 18:32 56.32583 82.03817 34810 ft 431 kts 163°
2026-04-26 18:32 56.29790 82.05850 33867 ft 436 kts 158°
2026-04-26 18:32 56.26969 82.07939 32904 ft 441 kts 158°
2026-04-26 18:33 56.24114 82.10043 31885 ft 446 kts 158°
2026-04-26 18:33 56.21214 82.12170 30798 ft 452 kts 158°
2026-04-26 18:33 56.18282 82.14317 29655 ft 458 kts 158°
2026-04-26 18:33 56.15313 82.16485 28453 ft 464 kts 158°
2026-04-26 18:34 56.12321 82.18668 27457 ft 463 kts 158°
2026-04-26 18:34 56.09377 82.20812 26524 ft 461 kts 158°
2026-04-26 18:34 56.06411 82.22970 25593 ft 459 kts 158°
2026-04-26 18:34 56.03464 82.25109 24677 ft 455 kts 158°
2026-04-26 18:35 56.00638 82.27619 23688 ft 453 kts 151°
2026-04-26 18:35 55.97910 82.30377 22815 ft 448 kts 150°
2026-04-26 18:35 55.95223 82.33118 21973 ft 440 kts 150°
2026-04-26 18:35 55.92601 82.35795 21130 ft 429 kts 150°
2026-04-26 18:36 55.90023 82.38425 20294 ft 425 kts 150°
2026-04-26 18:36 55.87472 82.41024 19460 ft 420 kts 150°
2026-04-26 18:36 55.84960 82.43581 18635 ft 411 kts 150°
2026-04-26 18:36 55.82444 82.45938 17730 ft 409 kts 158°
2026-04-26 18:37 55.79690 82.47102 16887 ft 406 kts 172°
2026-04-26 18:37 55.76905 82.47536 16096 ft 397 kts 176°
2026-04-26 18:37 55.74177 82.47830 15307 ft 391 kts 177°
2026-04-26 18:37 55.71475 82.48072 14528 ft 387 kts 177°
2026-04-26 18:38 55.68792 82.48284 13740 ft 384 kts 178°
2026-04-26 18:38 55.66132 82.48478 12963 ft 381 kts 178°
2026-04-26 18:38 55.63507 82.48662 12399 ft 372 kts 178°
2026-04-26 18:38 55.60957 82.48838 11982 ft 359 kts 178°
2026-04-26 18:39 55.58537 82.49004 11644 ft 346 kts 178°
2026-04-26 18:39 55.56186 82.49165 11311 ft 329 kts 178°
2026-04-26 18:39 55.53963 82.49324 10970 ft 311 kts 178°
2026-04-26 18:39 55.51860 82.49479 10652 ft 295 kts 178°
2026-04-26 18:40 55.49869 82.49625 10393 ft 278 kts 178°
2026-04-26 18:40 55.47966 82.49765 10159 ft 269 kts 178°
2026-04-26 18:40 55.46093 82.49902 9859 ft 271 kts 178°
2026-04-26 18:40 55.44213 82.50039 9455 ft 271 kts 178°
2026-04-26 18:41 55.42326 82.50177 9037 ft 269 kts 178°
2026-04-26 18:41 55.40463 82.50313 8626 ft 267 kts 178°
2026-04-26 18:41 55.38610 82.50448 8221 ft 265 kts 178°
2026-04-26 18:41 55.36775 82.50581 7821 ft 263 kts 178°
2026-04-26 18:42 55.34955 82.50714 7424 ft 261 kts 178°
2026-04-26 18:42 55.33148 82.50868 7050 ft 259 kts 175°
2026-04-26 18:42 55.31452 82.51884 6823 ft 260 kts 151°
2026-04-26 18:42 55.30039 82.53860 6782 ft 260 kts 137°
2026-04-26 18:43 55.28763 82.56122 6704 ft 259 kts 134°
2026-04-26 18:43 55.27542 82.58406 6593 ft 255 kts 133°
2026-04-26 18:43 55.26345 82.60701 6488 ft 254 kts 132°
2026-04-26 18:43 55.25158 82.63006 6385 ft 254 kts 132°
2026-04-26 18:44 55.23980 82.65308 6282 ft 254 kts 131°
2026-04-26 18:44 55.22818 82.67591 6179 ft 254 kts 131°
2026-04-26 18:44 55.21652 82.69885 6052 ft 248 kts 131°
2026-04-26 18:44 55.20563 82.72145 5927 ft 240 kts 126°
2026-04-26 18:45 55.19748 82.74647 5739 ft 236 kts 118°
2026-04-26 18:45 55.18971 82.77183 5297 ft 237 kts 118°
2026-04-26 18:45 55.18189 82.79743 4809 ft 239 kts 118°
2026-04-26 18:45 55.17406 82.82310 4358 ft 239 kts 118°
2026-04-26 18:46 55.16528 82.84760 3909 ft 238 kts 129°
2026-04-26 18:46 55.15167 82.86297 3558 ft 229 kts 157°
2026-04-26 18:46 55.13655 82.86817 3361 ft 215 kts 173°
2026-04-26 18:46 55.12200 82.87012 3158 ft 207 kts 176°
2026-04-26 18:47 55.10765 82.87159 2941 ft 206 kts 176°
2026-04-26 18:47 55.09360 82.87287 2715 ft 199 kts 177°
2026-04-26 18:47 55.07993 82.87404 2500 ft 195 kts 177°
2026-04-26 18:47 55.06639 82.87513 2301 ft 194 kts 177°
2026-04-26 18:48 55.05334 82.87518 2121 ft 179 kts 185°
2026-04-26 18:48 55.04336 82.86534 1979 ft 153 kts 223°
2026-04-26 18:48 55.03786 82.85184 1983 ft 127 kts 236°
2026-04-26 18:48 55.03369 82.83875 1930 ft 123 kts 242°
2026-04-26 18:49 55.03025 82.82534 1943 ft 123 kts 246°
2026-04-26 18:49 55.02755 82.81104 1865 ft 124 kts 252°
2026-04-26 18:49 55.02569 82.79640 1721 ft 123 kts 258°
2026-04-26 18:49 55.02430 82.78167 1563 ft 123 kts 261°
2026-04-26 18:50 55.02300 82.76698 1404 ft 122 kts 261°
2026-04-26 18:50 55.02168 82.75239 1244 ft 122 kts 261°
2026-04-26 18:50 55.02036 82.73778 1082 ft 122 kts 261°
2026-04-26 18:50 55.01906 82.72342 924 ft 121 kts 261°
2026-04-26 18:51 55.01774 82.70889 763 ft 121 kts 261°
2026-04-26 18:51 55.01643 82.69444 607 ft 121 kts 261°
2026-04-26 18:51 55.01511 82.67994 437 ft 121 kts 261°
2026-04-26 18:51 55.01398 82.66708 379 ft 68 kts 261°
2026-04-26 18:52 55.01327 82.65954 379 ft 63 kts 261°
2026-04-26 18:52 55.01267 82.65298 379 ft 42 kts 261°
2026-04-26 18:52 55.01216 82.65067 379 ft 9 kts 200°
2026-04-26 18:52 55.01142 82.65069 379 ft 14 kts 169°
2026-04-26 18:53 55.01027 82.65099 379 ft 20 kts 172°
2026-04-26 18:53 55.00904 82.65163 379 ft 16 kts 121°
2026-04-26 18:53 55.00904 82.65387 379 ft 23 kts 82°
2026-04-26 18:53 55.00929 82.65705 379 ft 30 kts 82°
2026-04-26 18:54 55.00955 82.66021 379 ft 13 kts 79°
2026-04-26 18:54 55.00992 82.66081 379 ft 4 kts 354°
2026-04-26 18:54 55.01000 82.66078 379 ft 0 kts 349°